• In Russia
  • List of Countries
  • For 7 days
  • Water Temperature
  • Satellite Maps
  • Weather Map
  • Weather Widgets
  • user-avatar
    Login

    Hourly Weather Ropotamo

    Today, 21 October, Sunday

    Time Temperature Precipitation Wind Pressure Humidity
    00:00 +13°C° 0 mm 4 mps 760 mmHg 83%
    01:00 +13°C° 0 mm 5 mps 760 mmHg 83%
    02:00 +13°C° 0 mm 5 mps 760 mmHg 84%
    03:00 +13°C° 0.1 mm 5 mps 760 mmHg 86%
    04:00 +13°C° 0.1 mm 5 mps 760 mmHg 87%
    05:00 +12°C° 0.1 mm 5 mps 759 mmHg 88%
    06:00 +13°C° 0 mm 4 mps 760 mmHg 86%
    07:00 +13°C° 0 mm 4 mps 760 mmHg 83%
    08:00 +14°C° 0 mm 4 mps 760 mmHg 81%
    09:00 +17°C° 0 mm 4 mps 760 mmHg 74%
    10:00 +18°C° 0 mm 4 mps 760 mmHg 67%
    11:00 +20°C° 0 mm 4 mps 760 mmHg 60%
    12:00 +20°C° 0.1 mm 4 mps 760 mmHg 58%
    13:00 +21°C° 0.1 mm 4 mps 760 mmHg 57%
    14:00 +21°C° 0.1 mm 4 mps 760 mmHg 55%
    15:00 +20°C° 0.1 mm 4 mps 760 mmHg 61%
    16:00 +19°C° 0.1 mm 4 mps 760 mmHg 66%
    17:00 +18°C° 0.1 mm 4 mps 760 mmHg 72%
    18:00 +17°C° 0.2 mm 4 mps 760 mmHg 77%
    19:00 +17°C° 0.2 mm 4 mps 760 mmHg 82%
    20:00 +15°C° 0.2 mm 4 mps 761 mmHg 86%
    21:00 +16°C° 0 mm 3 mps 761 mmHg 87%
    22:00 +14°C° 0 mm 3 mps 761 mmHg 88%
    23:00 +14°C° 0 mm 3 mps 761 mmHg 89%

    Tomorrow, 22 October, Monday

    Time Temperature Precipitation Wind Pressure Humidity
    00:00 +14°C° 0 mm 3 mps 761 mmHg 89%
    01:00 +13°C° 0 mm 4 mps 761 mmHg 89%
    02:00 +13°C° 0 mm 4 mps 762 mmHg 90%
    03:00 +13°C° 0 mm 4 mps 762 mmHg 89%
    04:00 +12°C° 0 mm 4 mps 762 mmHg 89%
    05:00 +12°C° 0 mm 5 mps 762 mmHg 89%
    06:00 +12°C° 0 mm 5 mps 762 mmHg 85%
    07:00 +13°C° 0 mm 5 mps 762 mmHg 81%
    08:00 +13°C° 0 mm 5 mps 762 mmHg 77%
    09:00 +15°C° 0 mm 5 mps 762 mmHg 71%
    10:00 +16°C° 0 mm 6 mps 762 mmHg 66%
    11:00 +17°C° 0 mm 6 mps 762 mmHg 60%
    12:00 +19°C° 0 mm 5 mps 762 mmHg 59%
    13:00 +19°C° 0 mm 5 mps 762 mmHg 58%
    14:00 +19°C° 0 mm 5 mps 761 mmHg 56%
    15:00 +17°C° 0 mm 5 mps 761 mmHg 60%
    16:00 +17°C° 0 mm 5 mps 761 mmHg 64%
    17:00 +16°C° 0 mm 5 mps 761 mmHg 68%
    18:00 +15°C° 0 mm 4 mps 761 mmHg 73%
    19:00 +14°C° 0 mm 4 mps 761 mmHg 78%
    20:00 +13°C° 0 mm 3 mps 762 mmHg 84%
    21:00 +13°C° 0 mm 3 mps 762 mmHg 84%
    22:00 +12°C° 0 mm 3 mps 762 mmHg 85%
    23:00 +12°C° 0 mm 3 mps 762 mmHg 86%

    Day after tomorrow, 23 October, Tuesday

    Time Temperature Precipitation Wind Pressure Humidity
    00:00 +12°C° 0 mm 3 mps 761 mmHg 86%
    01:00 +12°C° 0 mm 3 mps 761 mmHg 86%
    02:00 +12°C° 0 mm 3 mps 761 mmHg 85%
    03:00 +11°C° 0 mm 3 mps 761 mmHg 85%
    04:00 +11°C° 0 mm 4 mps 761 mmHg 84%
    05:00 +11°C° 0 mm 4 mps 761 mmHg 83%
    06:00 +11°C° 0 mm 4 mps 761 mmHg 80%
    07:00 +12°C° 0 mm 4 mps 761 mmHg 77%
    08:00 +12°C° 0 mm 4 mps 761 mmHg 74%
    09:00 +14°C° 0 mm 4 mps 761 mmHg 69%
    10:00 +15°C° 0 mm 4 mps 761 mmHg 64%
    11:00 +17°C° 0 mm 4 mps 761 mmHg 60%
    12:00 +18°C° 0 mm 4 mps 761 mmHg 57%
    13:00 +18°C° 0 mm 4 mps 760 mmHg 55%
    14:00 +19°C° 0 mm 3 mps 760 mmHg 52%
    15:00 +18°C° 0 mm 3 mps 759 mmHg 56%
    16:00 +17°C° 0 mm 3 mps 759 mmHg 59%
    17:00 +16°C° 0 mm 3 mps 759 mmHg 63%
    18:00 +15°C° 0 mm 2 mps 759 mmHg 68%
    19:00 +14°C° 0 mm 2 mps 759 mmHg 73%
    20:00 +13°C° 0 mm 1 mps 759 mmHg 78%
    21:00 +13°C° 0 mm 1 mps 758 mmHg 79%
    22:00 +12°C° 0 mm 1 mps 758 mmHg 79%
    23:00 +12°C° 0 mm 1 mps 758 mmHg 80%

    24 October, Wednesday

    Time Temperature Precipitation Wind Pressure Humidity
    00:00 +12°C° 0 mm 1 mps 757 mmHg 79%
    01:00 +12°C° 0 mm 2 mps 757 mmHg 78%
    02:00 +12°C° 0 mm 2 mps 756 mmHg 77%
    03:00 +10°C° 0 mm 2 mps 756 mmHg 76%
    04:00 +10°C° 0 mm 3 mps 755 mmHg 75%
    05:00 +10°C° 0 mm 3 mps 754 mmHg 73%
    06:00 +11°C° 0 mm 3 mps 754 mmHg 70%
    07:00 +11°C° 0 mm 3 mps 754 mmHg 66%
    08:00 +12°C° 0 mm 3 mps 754 mmHg 62%
    09:00 +14°C° 0 mm 4 mps 753 mmHg 56%
    10:00 +16°C° 0 mm 5 mps 753 mmHg 49%
    11:00 +19°C° 0 mm 5 mps 752 mmHg 43%
    12:00 +20°C° 0 mm 5 mps 751 mmHg 41%
    13:00 +20°C° 0 mm 5 mps 751 mmHg 39%
    14:00 +21°C° 0 mm 5 mps 750 mmHg 37%
    15:00 +20°C° 0 mm 5 mps 750 mmHg 40%
    16:00 +19°C° 0 mm 4 mps 749 mmHg 43%
    17:00 +18°C° 0 mm 4 mps 749 mmHg 46%
    18:00 +16°C° 0 mm 5 mps 749 mmHg 48%
    19:00 +15°C° 0 mm 5 mps 749 mmHg 50%
    20:00 +15°C° 0 mm 6 mps 749 mmHg 52%
    21:00 +14°C° 0.1 mm 7 mps 749 mmHg 55%
    22:00 +12°C° 0.1 mm 9 mps 750 mmHg 57%
    23:00 +11°C° 0.1 mm 10 mps 750 mmHg 60%

    25 October, Thursday

    Time Temperature Precipitation Wind Pressure Humidity
    00:00 +9°C° 0.3 mm 10 mps 751 mmHg 59%
    01:00 +7°C° 0.3 mm 9 mps 751 mmHg 57%
    02:00 +6°C° 0.3 mm 8 mps 752 mmHg 56%
    03:00 +5°C° 0 mm 8 mps 752 mmHg 54%
    04:00 +5°C° 0 mm 7 mps 752 mmHg 53%
    05:00 +4°C° 0 mm 7 mps 753 mmHg 52%
    06:00 +5°C° 0 mm 7 mps 753 mmHg 50%
    07:00 +5°C° 0 mm 6 mps 754 mmHg 48%
    08:00 +5°C° 0 mm 6 mps 754 mmHg 47%
    09:00 +7°C° 0 mm 6 mps 755 mmHg 42%
    10:00 +9°C° 0 mm 6 mps 755 mmHg 38%
    11:00 +10°C° 0 mm 6 mps 755 mmHg 34%
    12:00 +10°C° 0 mm 6 mps 755 mmHg 32%
    13:00 +11°C° 0 mm 6 mps 755 mmHg 31%
    14:00 +11°C° 0 mm 6 mps 755 mmHg 30%
    15:00 +11°C° 0 mm 6 mps 755 mmHg 32%
    16:00 +10°C° 0 mm 5 mps 755 mmHg 35%
    17:00 +9°C° 0 mm 5 mps 756 mmHg 37%
    18:00 +8°C° 0 mm 5 mps 756 mmHg 39%
    19:00 +8°C° 0 mm 5 mps 757 mmHg 41%
    20:00 +7°C° 0 mm 5 mps 757 mmHg 43%
    21:00 +7°C° 0 mm 5 mps 757 mmHg 44%
    22:00 +6°C° 0 mm 5 mps 757 mmHg 45%
    23:00 +6°C° 0 mm 5 mps 757 mmHg 46%

    26 October, Friday

    Time Temperature Precipitation Wind Pressure Humidity
    00:00 +6°C° 0 mm 5 mps 757 mmHg 47%
    01:00 +6°C° 0 mm 5 mps 757 mmHg 47%
    02:00 +5°C° 0 mm 5 mps 757 mmHg 48%
    03:00 +6°C° 0 mm 5 mps 758 mmHg 49%
    04:00 +6°C° 0 mm 5 mps 758 mmHg 49%
    05:00 +6°C° 0 mm 5 mps 758 mmHg 49%
    06:00 +7°C° 0 mm 5 mps 758 mmHg 49%
    07:00 +8°C° 0 mm 5 mps 758 mmHg 49%
    08:00 +8°C° 0 mm 5 mps 759 mmHg 50%
    09:00 +10°C° 0 mm 5 mps 759 mmHg 49%
    10:00 +13°C° 0 mm 5 mps 759 mmHg 49%
    11:00 +15°C° 0 mm 5 mps 759 mmHg 48%
    12:00 +17°C° 0 mm 4 mps 759 mmHg 47%
    13:00 +18°C° 0 mm 4 mps 759 mmHg 45%
    14:00 +19°C° 0 mm 3 mps 759 mmHg 43%
    15:00 +18°C° 0 mm 3 mps 759 mmHg 46%
    16:00 +17°C° 0 mm 2 mps 759 mmHg 50%
    17:00 +16°C° 0 mm 2 mps 759 mmHg 53%
    18:00 +15°C° 0 mm 2 mps 759 mmHg 54%
    19:00 +13°C° 0 mm 3 mps 760 mmHg 56%
    20:00 +13°C° 0 mm 4 mps 760 mmHg 58%
    21:00 +12°C° 0 mm 4 mps 760 mmHg 60%
    22:00 +12°C° 0 mm 4 mps 760 mmHg 62%
    23:00 +12°C° 0 mm 5 mps 761 mmHg 64%
    Show more